UTC  calendar date,Angular Size (deg),Planetocentric sub-spacecraft Longitude (deg),Planetocentric sub-spacecraft Latitude (deg),Planetocentric Subsolar Longitude (deg),Planetocentric Subsolar Latitude (deg),Planetographic Sub-Spacecraft Longitude (deg),Planetographic Sub-Spacecraft  Latitude (deg),Planetographic Solar Longitude (deg),Planetographic Solar Latitude (deg),Sub-Point Radius (km),Observer Distance (km),Phase Angle (deg)
2/2/17 7:57,16.55455925,86.05580557,35.32710588,95.69082432,-2.14666726,274.0350226,39.03408581,169.6999585,-2.58229435,69834.79741,426887.2489,102.7432342
2/2/17 8:07,16.97113056,80.00026357,35.94132657,89.64595973,-2.14668266,280.0905748,39.67052612,175.7448231,-2.58231034,69786.24549,414833.2701,102.6718126
2/2/17 8:17,17.41429061,73.94400355,36.58906944,83.60109515,-2.14669805,286.1468463,40.3397674,181.7896877,-2.58232633,69734.78328,402647.5638,102.5949829
2/2/17 8:27,17.88680111,67.88693656,37.27354552,77.55623056,-2.14671345,292.2039261,41.04480146,187.8345523,-2.58234233,69680.1429,390324.9441,102.512144
2/2/17 8:37,18.3918275,61.82895761,37.99840946,71.51136597,-2.14672884,298.2619196,41.78901588,193.8794169,-2.58235832,69622.02383,377859.8832,102.4226039
2/2/17 8:47,18.9330161,55.76994176,38.76784044,65.46650138,-2.14674424,304.3209521,42.57626338,199.9242815,-2.58237431,69560.08817,365246.4823,102.3255624
2/2/17 8:57,19.5145897,49.70973911,39.5866415,59.42163679,-2.14675963,310.3811739,43.41094656,205.9691461,-2.5823903,69493.95514,352478.4411,102.2200894
2/2/17 9:07,20.14146691,43.64816799,40.4603626,53.3767722,-2.14677503,316.4427671,44.298122,212.0140107,-2.58240629,69423.19481,339549.0252,102.1050976
2/2/17 9:17,20.81941255,37.58500597,41.39545395,47.33190761,-2.14679042,322.5059549,45.2436294,218.0588753,-2.58242228,69347.32101,326451.0327,101.9793091
2/2/17 9:27,21.55522866,31.5199775,42.39945898,41.28704302,-2.14680582,328.5710138,46.25425266,224.1037399,-2.58243827,69265.78326,313176.7591,101.8412116
2/2/17 9:37,22.35699978,25.45273661,43.48125908,35.24217843,-2.14682121,334.638291,47.33792301,230.1486044,-2.58245426,69177.95816,299717.964,101.6890037
2/2/17 9:47,23.23441107,19.38284254,44.65138724,29.19731384,-2.14683661,340.7082288,48.50397722,236.193469,-2.58247025,69083.1402,286065.8413,101.5205242
2/2/17 9:57,24.19916574,13.30972416,45.92243379,23.15244925,-2.146852,346.7814007,49.76348947,242.2383337,-2.58248624,68980.53304,272210.9963,101.3331588
2/2/17 10:07,25.2655396,7.232627,47.30957722,17.10758465,-2.14686739,352.8585645,51.12970237,248.2831983,-2.58250223,68869.24252,258143.4369,101.1237189
2/2/17 10:17,26.4511279,1.15053185,48.83128667,11.06272006,-2.14688279,358.9407442,52.61859351,254.3280629,-2.58251822,68748.2744,243852.5895,100.8882784
2/2/17 10:27,27.77786587,-4.93797455,50.51026317,5.01785546,-2.14689818,5.0293603,54.24963005,260.3729275,-2.58253421,68616.54185,229327.3552,100.6219549
2/2/17 10:37,29.27344577,-11.03491367,52.37471735,-1.02700913,-2.14691357,11.12644566,56.0467877,266.4177921,-2.58255019,68472.89263,214556.2352,100.3186092
2/2/17 10:47,30.97331908,-17.14328708,54.46012821,-7.07187373,-2.14692897,17.23502071,58.03994841,272.4626567,-2.58256618,68316.17359,199527.5697,99.97043031
2/2/17 10:57,32.92357923,-23.26776154,56.81169914,-13.11673832,-2.14694436,23.35978512,60.26685017,278.5075213,-2.58258217,68145.36576,184229.965,99.56734934
2/2/17 11:07,35.18519756,-29.41602625,59.48783875,-19.16160292,-2.14695975,29.50848994,62.77585834,284.5523859,-2.58259816,67959.85191,168653.0373,99.09620345
2/2/17 11:17,37.84038419,-35.60174481,62.56516572,-25.20646752,-2.14697514,35.69492674,65.62998635,290.5972505,-2.58261415,67759.93366,152788.695,98.53952049
2/2/17 11:27,41.00235781,-41.85182706,66.14579977,-31.25133211,-2.14699053,41.94630706,68.91286221,296.6421151,-2.58263013,67547.82085,136633.3575,97.87372519
2/2/17 11:37,44.83068737,-48.22779332,70.36807456,-37.29619671,-2.14700593,48.32501284,72.7377952,302.6869797,-2.58264612,67329.52049,120191.8458,97.06645179
2/2/17 11:47,49.55584143,-54.90835309,75.42219574,-43.34106131,-2.14702132,55.01311773,77.26182768,308.7318443,-2.58266211,67118.43748,103484.3609,96.07247157
2/2/17 11:57,55.51879864,-62.72484008,81.57122639,-49.38592591,-2.14703671,62.86685118,82.70673907,314.7767089,-2.5826781,66942.17824,86559.41756,94.8275061
2/2/17 12:07,63.2335879,-103.0187839,89.01885889,-55.43079051,-2.1470521,108.2782516,89.226855,320.8215736,-2.58269408,66854.99916,69518.87389,93.23902619
2/2/17 12:17,73.47498816,113.18966,81.09701386,-61.47565511,-2.14706749,246.9722967,82.05641513,326.8664382,-2.58271007,66958.44201,52569.12162,91.17384545
2/2/17 12:27,87.34044182,104.8187381,68.7035354,-67.5205197,-2.14708288,255.2887851,70.98597203,332.9113028,-2.58272606,67425.3226,36132.53695,88.44826716
2/2/17 12:37,105.9487732,98.01270648,52.5966143,-73.5653843,-2.14709827,262.0857383,55.96749182,338.9561674,-2.58274204,68479.18929,21101.30604,84.86089009
2/2/17 12:47,128.1702322,91.55965184,31.86496987,-79.6102489,-2.14711366,268.5359334,35.03996419,345.001032,-2.58275803,70129.5825,9370.653416,80.47553914
2/2/17 12:57,141.4847911,85.22576409,6.91957498,-85.6551135,-2.14712905,274.8688532,7.45698591,351.0458966,-2.58277401,71425.73285,4304.197436,76.65993655
2/2/17 13:07,128.1828934,78.9226387,-18.18260038,-91.6999781,-2.14714444,281.1719711,-20.97411242,357.0907613,-2.58279,70979.15285,8508.09466,75.93667979
2/2/17 13:17,105.9951833,72.59373735,-38.96969677,-97.7448427,-2.14715983,287.5016802,-43.04787739,3.13562589,-2.58280598,69522.77727,20032.01937,77.77131491
2/2/17 13:27,87.40101502,66.17584767,-54.91961744,-103.7897073,-2.14717522,293.9215724,-58.64153867,9.18049051,-2.58282197,68269.53629,35252.47171,80.17268149
2/2/17 13:37,73.53464164,59.54931055,-67.13694673,-109.8345719,-2.14719061,300.5528618,-69.90547502,15.22535514,-2.58283795,67487.98366,51981.05901,82.35904963
2/2/17 13:47,63.28685838,52.36690191,-76.65906811,-115.8794365,-2.147206,307.7495916,-78.39640304,21.27021976,-2.58285394,67074.37589,69210.00637,84.19975179
2/2/17 13:57,55.56478181,42.81446993,-84.224889,-121.9243011,-2.14722139,317.3864019,-85.03463305,27.31508439,-2.58286992,66895.05536,86486.36207,85.72823307
2/2/17 14:07,49.59518603,-81.22240922,-89.25528254,-127.9691657,-2.14723677,86.30811379,-89.30516897,33.35994901,-2.58288591,66854.80701,103602.1476,87.00329445
2/2/17 14:17,44.86440504,-136.8032309,-84.45348101,-134.0140303,-2.14725216,136.9732423,-85.08550598,39.40481364,-2.58290189,66894.22158,120461.9404,88.07766163
2/2/17 14:27,41.03142266,-145.6453047,-80.18546371,-140.0588949,-2.14726755,145.7577391,-81.34595662,45.44967827,-2.58291787,66977.73051,137024.7507,88.99314044
2/2/17 14:37,37.86562475,-152.6811112,-76.53786219,-146.1037595,-2.14728294,152.7818328,-78.13221049,51.4945429,-2.58293386,67084.30228,153276.979,89.78181565
2/2/17 14:47,35.20728795,-159.2367449,-73.38548471,-152.1486241,-2.14729833,159.3332184,-75.33666311,57.53940753,-2.58294984,67201.54705,169219.1056,90.46819259
2/2/17 14:57,32.94305952,-165.5951513,-70.63156921,-158.1934887,-2.14731371,165.6896173,-72.87761588,63.58427216,-2.58296582,67322.19529,184858.8299,91.07109061
2/2/17 15:07,30.99062072,-171.8532659,-68.2023851,-164.2383533,-2.1473291,171.9466249,-70.69343375,69.6291368,-2.58298181,67442.02631,200207.4079,91.60510071
2/2/17 15:17,29.2889145,-178.0533223,-66.04115791,-170.2832179,-2.14734449,178.1460055,-68.7369034,75.67400143,-2.58299779,67558.6474,215277.6521,92.08165994
2/2/17 15:27,27.79178041,175.7833129,-64.10359024,-176.3280825,-2.14735987,184.308927,-66.97126139,81.71886607,-2.58301377,67670.76827,230082.8277,92.50983404
2/2/17 15:37,26.46371456,169.6446578,-62.35466805,177.6270529,-2.14737526,190.4472749,-65.36744305,87.7637307,-2.58302975,67777.76503,244636.0456,92.89688786
2/2/17 15:47,25.27698357,163.5234657,-60.7663752,171.5821883,-2.14739065,196.5682453,-63.90215277,93.80859534,-2.58304574,67879.41538,258949.9384,93.24870378
2/2/17 15:57,24.20961976,157.4150915,-59.31604002,165.5373237,-2.14740603,202.6764539,-62.55648702,99.85345998,-2.58306172,67975.73624,273036.4976,93.57009144
2/2/17 16:07,23.24400206,151.3164176,-57.98512351,159.4924591,-2.14742142,208.7750007,-61.3149347,105.8983246,-2.5830777,68066.88342,286907.0058,93.86501933
2/2/17 16:17,22.36583399,145.2252718,-56.75831993,153.4475945,-2.1474368,214.8660467,-60.16463975,111.9431893,-2.58309368,68153.08951,300572.0219,94.13678976
2/2/17 16:27,21.56339564,139.1400928,-55.62288072,147.4027299,-2.14745219,220.9511457,-59.09484893,117.9880539,-2.58310966,68234.62524,314041.3977,94.38817235
2/2/17 16:37,20.82698831,133.0597288,-54.56810047,141.3578653,-2.14746757,227.0314447,-58.09649278,124.0329185,-2.58312564,68311.77577,327324.3102,94.62150708
2/2/17 16:47,20.14851633,126.9833106,-53.58492157,135.3130007,-2.14748296,233.1078093,-57.16186361,130.0777832,-2.58314162,68384.82621,340429.3028,94.8387844
2/2/17 16:57,19.5211685,120.9101696,-52.66562713,129.2681361,-2.14749834,239.1809054,-56.28436509,136.1226478,-2.5831576,68454.05312,353364.3295,95.04170818
2/2/17 17:07,18.9391724,114.8397826,-51.80359994,123.2232715,-2.14751373,245.2512544,-55.45831566,142.1675125,-2.58317358,68519.71964,366136.7985,95.23174559
2/2/17 17:17,18.39760306,108.7717344,-50.99313174,117.1784069,-2.14752911,251.3192703,-54.67879254,148.2123771,-2.58318956,68582.07315,378753.6161,95.41016699
2/2/17 17:27,17.89223236,102.7056906,-50.22927082,111.1335423,-2.1475445,257.3852863,-53.94150686,154.2572418,-2.58320554,68641.34423,391221.2258,95.57807799
2/2/17 17:37,17.41940946,96.64137898,-49.50769939,105.0886777,-2.14755988,263.4495737,-53.24270297,160.3021064,-2.58322152,68697.74666,403545.6474,95.73644541
2/2/17 17:47,16.9759651,90.57857562,-48.82463413,99.04381314,-2.14757526,269.5123559,-52.57907643,166.3469711,-2.5832375,68751.47794,415732.5107,95.88611859
2/2/17 17:57,16.55913427,84.5170944,-48.17674497,92.99894854,-2.14759065,275.5738186,-51.94770691,172.3918357,-2.58325348,68802.72007,427787.0879,96.02784682